Simultaneous Nadir Overpasses (SNOs) Predictions

Prediction of SNOs between AQUA and GOES-15 Satellite Orbit:

Table of predicted SNOs for the next 14.0 days since TLE Epoch: 10/9/2021
Index Date Time (AQUA) AQUA Lat,Lon GOES-15 Lat,Lon Distance(km) Time Diff (sec)
1 10/09/2021 21:58:00 0.21,-125.64 -0.29,-127.99 267.74 80
2 10/10/2021 10:19:16 0.87,-130.80 0.27,-128.02 315.28 80
3 10/12/2021 10:07:05 0.20,-127.84 0.27,-128.08 27.20 80
4 10/14/2021 09:54:53 -0.41,-124.88 0.27,-128.13 369.17 80
5 10/14/2021 22:16:17 -0.67,-130.07 -0.25,-128.12 222.28 80
6 10/16/2021 22:04:05 -0.05,-127.11 -0.24,-128.17 119.94 80
7 10/17/2021 10:25:22 1.07,-132.28 0.22,-128.21 463.30 80
8 10/18/2021 21:51:54 0.65,-124.16 -0.25,-128.22 462.28 80
9 10/19/2021 10:13:10 0.44,-129.32 0.22,-128.26 120.99 80
10 10/21/2021 10:00:58 -0.20,-126.37 0.23,-128.30 221.04 80
11 10/21/2021 22:22:21 -0.87,-131.56 -0.20,-128.30 370.54 80
